This is the latest recevied weather packets stored in our database for station/object KB7KFC-3. If no packets are shown the sender has not sent any weather packets the latest 10 day(s).
| Time | Temp. | Humidity | Pressure | Rain* | Wind** | Luminosity | Snow |
|---|---|---|---|---|---|---|---|
| 1778182264 | 32.78° C | 10% | 1012.5 hPa | 0 mm | - | - | - |
| 1778182085 | 32.78° C | 12% | 1012.6 hPa | 0 mm | - | - | - |
| 1778181905 | 32.22° C | 14% | 1012.6 hPa | 0 mm | - | - | - |
| 1778181724 | 31.67° C | 12% | 1012.6 hPa | 0 mm | - | - | - |
| 1778181545 | 31.67° C | 10% | 1012.7 hPa | 0 mm | - | - | - |
| 1778181365 | 31.67° C | 11% | 1012.8 hPa | 0 mm | - | - | - |
| 1778181184 | 32.22° C | 11% | 1012.8 hPa | 0 mm | - | - | - |
| 1778181005 | 32.22° C | 14% | 1012.9 hPa | 0 mm | - | - | - |
| 1778180827 | 31.67° C | 12% | 1012.9 hPa | 0 mm | - | - | - |
| 1778180645 | 31.11° C | 11% | 1013 hPa | 0 mm | - | - | - |
| 1778180466 | 31.11° C | 12% | 1013.1 hPa | 0 mm | - | - | - |
| 1778180284 | 31.11° C | 11% | 1013.1 hPa | 0 mm | - | - | - |
| 1778180105 | 31.67° C | 11% | 1013.1 hPa | 0 mm | - | - | - |
| 1778179925 | 31.11° C | 12% | 1013.2 hPa | 0 mm | - | - | - |
| 1778179745 | 31.11° C | 11% | 1013.3 hPa | 0 mm | - | - | - |
| 1778179564 | 31.11° C | 12% | 1013.3 hPa | 0 mm | - | - | - |
| 1778179386 | 31.11° C | 15% | 1013.4 hPa | 0 mm | - | - | - |
| 1778179205 | 31.11° C | 13% | 1013.3 hPa | 0 mm | - | - | - |
| 1778179025 | 30.56° C | 15% | 1013.4 hPa | 0 mm | - | - | - |
| 1778178845 | 30° C | 12% | 1013.5 hPa | 0 mm | - | - | - |
| 1778178664 | 30.56° C | 13% | 1013.5 hPa | 0 mm | - | - | - |
| 1778178485 | 30.56° C | 13% | 1013.5 hPa | 0 mm | - | - | - |
| 1778178305 | 30.56° C | 13% | 1013.6 hPa | 0 mm | - | - | - |
| 1778178126 | 30.56° C | 14% | 1013.6 hPa | 0 mm | - | - | - |
| 1778177946 | 30.56° C | 15% | 1013.6 hPa | 0 mm | - | - | - |
* Rain latest hour (hover to see other rain measurements)
** Current wind speed in m/s (hover to see current wind gust speed)